Regional Weather Roundup
Issued by NWS Northern Indiana

Home | Current Version | Previous Version | Text Only | Print | Product List | Glossary Off
Versions: 1 2 3 4 5 6 7 8 9 10 11 12 13 14 15 16 17 18 19 20 21 22 23 24 25 26 27 28 29 30 31 32 33 34 35 36 37 38 39 40 41 42 43 44 45 46 47 48 49 50

000
ASUS43 KIWX 210110
RWRIWX

KIWX WEATHER ROUNDUP
NATIONAL WEATHER SERVICE NORTHERN INDIANA
900 PM EDT SUN APR 20 2014

NOTE: "FAIR" INDICATES FEW OR NO CLOUDS BELOW 12,000 FEET WITH NO
SIGNIFICANT WEATHER AND/OR OBSTRUCTIONS TO VISIBILITY.

* THESE STATIONS ARE NOT UNDER NWS QUALITY CONTROL. THEY ALSO MAY NOT
  REPORT WEATHER SUCH AS PRECIPITATION OR FOG.

INZ001>027-210200-
NORTHERN INDIANA

CITY           SKY/WX    TMP DP  RH WIND       PRES   REMARKS
VALPARAISO     CLEAR     67  36  31 SE6       30.09S
MICHIGAN CITY* CLEAR     68  32  26 CALM      30.09S
LAPORTE*       PTCLDY    67  34  29 S3        30.10S
SOUTH BEND     PTCLDY    68  29  23 S7        30.10F
GOSHEN         PTCLDY    66  32  28 SW3       30.11S
MONTICELLO*    PTCLDY    68  35  29 CALM      30.09S
LOGANSPORT*    PTCLDY    64  28  25 CALM      30.11S
ROCHESTER*     PTCLDY    64  34  32 CALM      30.11S
WARSAW*        PTCLDY    61  34  36 CALM      30.11S
ANGOLA*        CLEAR     63  45  51 CALM      30.11F
FORT WAYNE     MOCLDY    61  36  39 CALM      30.12S
HUNTINGTON*    FAIR      64  35  34 CALM      30.11S
PERU/GRISSOM   CLEAR     66  38  35 CALM      30.11R
MARION*        CLEAR     64  36  35 CALM      30.12R

$$
INZ028>050-210200-
CENTRAL INDIANA

CITY           SKY/WX    TMP DP  RH WIND       PRES   REMARKS
LAFAYETTE      CLEAR     66  38  35 SW3       30.09S
KOKOMO*          N/A     64  37  36 S3        30.11R
MUNCIE*        PTCLDY    67  36  31 CALM      30.11S
INDIANAPOLIS   PTCLDY    66  36  32 S5        30.11R

$$
MIZ043>046-050>051-056>058-064>065-071>073-077>080-210200-
SOUTHWEST LOWER MICHIGAN

CITY           SKY/WX    TMP DP  RH WIND       PRES   REMARKS
BATTLE CREEK   PTCLDY    64  29  26 S5        30.11F
BENTON HARBOR  PTCLDY    62  37  39 CALM      30.08F
COLDWATER*     PTCLDY    60  30  32 CALM      30.11S
HILLSDALE*     PTCLDY    66  29  24 CALM      30.12S
HOLLAND        PTCLDY    63  39  41 SE3       30.09F
GRAND RAPIDS   PTCLDY    66  34  30 SW6       30.09S
KALAMAZOO      PTCLDY    65  30  27 S6        30.11S
STURGIS*       PTCLDY    63  34  34 CALM      30.10F
THREE RIVERS*  FAIR      63  33  32 CALM      30.11S

$$
OHZ001>008-015>018-024>025-210200-
NORTHWEST OHIO

CITY           SKY/WX    TMP DP  RH WIND       PRES   REMARKS
WAUSEON*       FAIR      61  37  41 SE3       30.12S
DEFIANCE       PTCLDY    63  32  31 CALM      30.12S
FINDLAY        PTCLDY    66  34  30 S3        30.11F
TOLEDO EXPRESS MOCLDY    60  38  43 E3        30.12S
TOLEDO METCALF PTCLDY    55  37  50 E7        30.14S
LIMA           MOCLDY    63  36  36 S5        30.12F

$$
&&



USA.gov is the U.S. government's official web portal to all federal, state and local government web resources and services.